Location: Alfortville
(48.8058°N, 2.4204°E)
Time: 04:26:24
(UTC+00:00)

Cosmos 1980 Rocket - Pass Details

Date: 31 May 2022
Orbit: 827 x 851 km, 71.0° (Epoch: 06 July)

Event Time Altitude Azimuth Distance (km) Brightness Sun altitude
Rises 20:47:24 0° 229° (SW) 3,378 5.4 -8.5°
Reaches altitude 10° 20:49:57 10° 237° (WSW) 2,452 4.7 -8.8°
Maximum altitude 20:55:16 42° 307° (NW) 1,187 3.7 -9.4°
Drops below altitude 10° 21:00:40 10° 19° (NNE) 2,480 5.1 -10.0°
Sets 21:03:17 0° 26° (NNE) 3,422 5.7 -10.2°
